カタログに戻る

ICEYE-X53

運用中科学SSO
NORAD 64584·PAYLOAD·🇫🇮 Finland

打ち上げ Jun 23, 2025 から Vandenberg Space Force Base

Loading…

次のパス (今後24時間)

TLE

最新Source: Space-Track

元期: Sep 14, 2026, 13:26 UTC

1 64584U 25135BJ  26257.55988492  .00004335  00000-0  34515-3 0  9991
2 64584  97.7316  13.9096 0001553 133.8874 226.2478 15.00901258 67485

AllMySatでICEYE-X53をリアルタイム追跡

Download on the App Store